TimeCDT,TemperatureF,Dew PointF,Humidity,Sea Level PressureIn,VisibilityMPH,Wind Direction,Wind SpeedMPH,Gust SpeedMPH,PrecipitationIn,Events,Conditions,WindDirDegrees,DateUTC
12:53 AM,42.1,30.0,62,30.19,10.0,NW,17.3,23.0,N/A,,Clear,320,2012-10-05 05:53:00
1:53 AM,41.0,28.9,62,30.20,10.0,NW,12.7,-,N/A,,Clear,310,2012-10-05 06:53:00
2:53 AM,39.2,28.4,65,30.17,10.0,NNW,8.1,-,N/A,,Clear,340,2012-10-05 07:53:00
3:53 AM,37.0,28.9,73,30.20,10.0,WNW,3.5,-,N/A,,Clear,290,2012-10-05 08:53:00
4:53 AM,33.1,28.0,82,30.21,10.0,Calm,Calm,-,N/A,,Clear,0,2012-10-05 09:53:00
5:53 AM,30.9,27.0,85,30.22,10.0,SSW,3.5,-,N/A,,Clear,210,2012-10-05 10:53:00
6:53 AM,30.9,27.0,85,30.23,10.0,WSW,8.1,-,N/A,,Clear,250,2012-10-05 11:53:00
7:53 AM,32.0,28.0,85,30.22,10.0,SW,3.5,-,N/A,,Clear,230,2012-10-05 12:53:00
8:53 AM,39.0,30.0,70,30.22,10.0,West,12.7,-,N/A,,Clear,270,2012-10-05 13:53:00
9:53 AM,43.0,28.9,58,30.21,10.0,WNW,17.3,23.0,N/A,,Clear,300,2012-10-05 14:53:00
10:53 AM,43.0,26.1,51,30.21,10.0,WNW,17.3,-,N/A,,Clear,290,2012-10-05 15:53:00
11:53 AM,46.0,24.1,42,30.18,10.0,WNW,13.8,20.7,N/A,,Clear,300,2012-10-05 16:53:00
12:53 PM,43.0,23.0,45,30.18,10.0,West,13.8,-,N/A,,Mostly Cloudy,280,2012-10-05 17:53:00
1:53 PM,44.1,23.0,43,30.16,10.0,West,16.1,-,N/A,,Partly Cloudy,280,2012-10-05 18:53:00
2:53 PM,44.1,21.0,40,30.17,10.0,West,13.8,25.3,N/A,,Clear,280,2012-10-05 19:53:00
3:53 PM,44.1,21.0,40,30.15,10.0,West,13.8,-,N/A,,Partly Cloudy,270,2012-10-05 20:53:00
4:53 PM,44.1,21.0,40,30.15,10.0,West,17.3,24.2,N/A,,Partly Cloudy,280,2012-10-05 21:53:00
5:53 PM,45.0,21.9,40,30.14,10.0,West,13.8,20.7,N/A,,Clear,280,2012-10-05 22:53:00
6:53 PM,43.0,19.0,38,30.14,10.0,West,9.2,-,N/A,,Clear,280,2012-10-05 23:53:00
7:53 PM,41.0,17.1,38,30.15,10.0,WNW,9.2,-,N/A,,Clear,300,2012-10-06 00:53:00
8:53 PM,37.9,17.1,43,30.14,10.0,West,8.1,-,N/A,,Clear,280,2012-10-06 01:53:00
9:53 PM,37.0,18.0,46,30.15,10.0,West,9.2,-,N/A,,Clear,280,2012-10-06 02:53:00
10:53 PM,35.1,19.9,54,30.17,10.0,West,9.2,-,N/A,,Clear,280,2012-10-06 03:53:00
11:53 PM,35.1,23.0,61,30.16,10.0,WNW,9.2,-,N/A,,Clear,290,2012-10-06 04:53:00